Date String (YYYY-MM-DD hh:mm:ss) UTC,Instrument flags,Ambient pressure (hPa),Sample flow (lpm),Bypass flow (lpm),Sample temperature (°C),Ambient temperature (°C),ASC tube jacket temperature (°C),LED temperature (°C),Box temperature (°C),Sample RH (%),Span deviation,Mass concentration (μg/m³),Mass concentration (μg/m³),Mass concentration (μg/m³)
DateTimeUTC,F1_M11,P_M11,Q1_M11,Q2_M11,T1_M11,T2_M11,T3_M11,T4_M11,T5_M11,U1_M11,ZSPAN_M11,X0_M11,X2_M11,X1_M11
2021-10-22 16:00:00,,0828.0,5.02,0.00,28.0,27.3,00.0,36.9,29.8,10.3,0000.0,0011.72,0004.04,0003.18
2021-10-22 16:01:00,,0828.0,5.00,0.00,28.0,27.3,00.0,36.9,29.8,10.1,0000.0,0011.48,0004.07,0003.25
2021-10-22 16:02:00,,0828.1,5.00,0.00,28.0,27.3,00.0,36.9,29.8,10.0,0000.0,0011.59,0004.15,0003.33
2021-10-22 16:03:00,,0828.0,4.99,0.00,28.0,27.3,00.0,36.9,29.9,10.2,0000.0,0011.73,0004.25,0003.41
2021-10-22 16:04:00,,0828.1,5.02,0.00,28.0,27.4,00.0,36.9,29.9,10.2,0000.0,0012.23,0004.35,0003.49
2021-10-22 16:05:00,,0828.0,5.00,0.00,28.0,27.4,00.0,37.0,29.9,10.5,0000.0,0013.15,0004.49,0003.58
2021-10-22 16:06:00,,0828.0,5.01,0.00,28.1,27.4,00.0,37.0,29.9,10.3,0000.0,0013.12,0004.59,0003.68
2021-10-22 16:07:00,,0828.0,5.00,0.00,28.1,27.4,00.0,37.0,30.0,10.5,-001.6,0013.19,0004.71,0003.77
2021-10-22 16:08:00,,0827.9,4.99,0.00,28.1,27.5,00.0,37.0,30.0,10.3,-002.2,0013.44,0004.81,0003.87
2021-10-22 16:09:00,,0827.9,5.01,0.00,28.1,27.5,00.0,37.0,30.0,10.3,-001.9,0013.61,0004.90,0003.96
2021-10-22 16:10:00,,0828.0,4.99,0.00,28.2,27.5,00.0,37.1,30.0,10.5,-002.2,0014.44,0005.06,0004.05
2021-10-22 16:11:00,,0828.0,5.00,0.00,28.2,27.5,00.0,37.1,30.0,10.4,-003.5,0015.50,0005.22,0004.13
2021-10-22 16:12:00,,0828.0,5.01,0.00,28.2,27.5,00.0,37.1,30.1,10.4,-003.9,0016.12,0005.32,0004.19
2021-10-22 16:13:00,,0828.0,5.00,0.00,28.2,27.6,00.0,37.1,30.1,10.4,-003.9,0016.96,0005.44,0004.24
2021-10-22 16:14:00,,0827.9,4.99,0.00,28.2,27.6,00.0,37.2,30.1,10.2,0004.6,0017.03,0005.44,0004.26
2021-10-22 16:15:00,,0828.0,5.00,0.00,28.3,27.6,00.0,37.2,30.1,10.3,0001.2,0016.70,0005.48,0004.28
2021-10-22 16:16:00,,0828.0,5.00,0.00,28.3,27.6,00.0,37.2,30.2,10.3,-003.1,0016.04,0005.49,0004.28
2021-10-22 16:17:00,,0828.0,5.00,0.00,28.3,27.6,00.0,37.2,30.2,10.6,-003.0,0015.15,0005.53,0004.31
2021-10-22 16:18:00,,0828.0,5.00,0.00,28.3,27.7,00.0,37.2,30.2,10.8,-003.0,0014.35,0005.52,0004.35
2021-10-22 16:19:00,,0827.9,5.00,0.00,28.4,27.7,00.0,37.3,30.2,10.7,-003.2,0014.76,0005.50,0004.34
2021-10-22 16:20:00,,0827.9,5.00,0.00,28.4,27.7,00.0,37.3,30.2,10.9,-003.5,0015.34,0005.54,0004.37
2021-10-22 16:21:00,,0827.9,5.01,0.00,28.4,27.7,00.0,37.3,30.3,11.0,-004.1,0015.87,0005.53,0004.39
2021-10-22 16:22:00,,0827.9,5.01,0.00,28.4,27.7,00.0,37.3,30.3,10.7,-003.5,0015.36,0005.51,0004.40
2021-10-22 16:23:00,,0827.9,4.99,0.00,28.4,27.8,00.0,37.4,30.3,10.6,-003.0,0015.38,0005.44,0004.38
2021-10-22 16:24:00,,0827.8,4.99,0.00,28.4,27.8,00.0,37.4,30.3,10.6,-003.2,0015.77,0005.38,0004.36
2021-10-22 16:25:00,,0827.9,5.00,0.00,28.5,27.8,00.0,37.4,30.3,10.7,-002.1,0016.07,0005.41,0004.35
2021-10-22 16:26:00,,0827.9,5.00,0.00,28.5,27.8,00.0,37.4,30.3,10.7,-002.9,0017.35,0005.45,0004.38
2021-10-22 16:27:00,,0827.8,5.00,0.00,28.5,27.8,00.0,37.4,30.3,10.6,-003.3,0017.48,0005.39,0004.36
2021-10-22 16:28:00,,0827.8,5.01,0.00,28.5,27.9,00.0,37.4,30.4,10.7,-002.5,0018.46,0005.41,0004.35
2021-10-22 16:29:00,,0827.9,5.02,0.00,28.5,27.9,00.0,37.5,30.4,10.4,-001.9,0019.65,0005.36,0004.29
2021-10-22 16:30:00,,0827.9,5.01,0.00,28.6,27.9,00.0,37.5,30.4,10.5,-002.8,0020.14,0005.37,0004.26
2021-10-22 16:31:00,,0827.9,4.99,0.00,28.6,27.9,00.0,37.5,30.4,10.3,-003.7,0020.07,0005.36,0004.23
2021-10-22 16:32:00,,0827.9,4.99,0.00,28.6,27.9,00.0,37.5,30.5,10.2,-002.8,0019.82,0005.33,0004.17
2021-10-22 16:33:00,,0827.9,4.99,0.00,28.6,27.9,00.0,37.6,30.5,10.2,-002.7,0019.63,0005.30,0004.13
2021-10-22 16:34:00,,0827.9,5.01,0.00,28.6,27.9,00.0,37.6,30.5,10.3,-002.9,0020.13,0005.33,0004.14
2021-10-22 16:35:00,,0827.9,5.00,0.00,28.7,27.9,00.0,37.6,30.5,10.3,-002.7,0018.86,0005.29,0004.13
2021-10-22 16:36:00,,0827.9,5.00,0.00,28.7,28.0,00.0,37.6,30.5,10.1,-003.4,0018.98,0005.19,0004.11
2021-10-22 16:37:00,,0827.9,5.01,0.00,28.7,28.0,00.0,37.6,30.6,10.1,-003.2,0017.81,0005.14,0004.08
2021-10-22 16:38:00,,0827.9,5.00,0.00,28.7,28.0,00.0,37.6,30.6,10.0,-003.2,0017.28,0005.12,0004.06
2021-10-22 16:39:00,,0827.9,4.99,0.00,28.7,28.0,00.0,37.7,30.6,09.9,-003.8,0016.16,0005.05,0004.01
2021-10-22 16:40:00,,0827.9,4.98,0.00,28.8,28.1,00.0,37.7,30.6,09.9,-004.1,0015.05,0005.04,0003.98
2021-10-22 16:41:00,,0827.9,4.99,0.00,28.8,28.1,00.0,37.7,30.6,09.5,-003.6,0013.90,0004.94,0003.93
2021-10-22 16:42:00,,0827.9,5.00,0.00,28.8,28.1,00.0,37.7,30.6,09.8,-002.7,0013.68,0004.91,0003.91
2021-10-22 16:43:00,,0827.9,5.01,0.00,28.8,28.1,00.0,37.7,30.6,10.1,-003.5,0013.54,0004.95,0003.92
2021-10-22 16:44:00,,0827.8,4.99,0.00,28.8,28.2,00.0,37.8,30.7,10.2,-003.4,0013.66,0004.97,0003.94
2021-10-22 16:45:00,,0827.8,5.00,0.00,28.8,28.2,00.0,37.8,30.7,10.1,-003.5,0014.18,0005.04,0003.93
2021-10-22 16:46:00,,0827.7,5.01,0.00,28.9,28.2,00.0,37.8,30.7,10.0,-004.3,0014.75,0005.09,0003.93
2021-10-22 16:47:00,,0827.7,5.01,0.00,28.9,28.2,00.0,37.8,30.7,10.1,-004.4,0014.43,0005.12,0003.94
2021-10-22 16:48:00,,0827.7,4.99,0.00,28.9,28.3,00.0,37.8,30.7,10.2,-004.4,0014.70,0005.17,0003.97
2021-10-22 16:49:00,,0827.7,5.00,0.00,28.9,28.3,00.0,37.9,30.8,10.0,-004.8,0015.57,0005.20,0003.99
2021-10-22 16:50:00,,0827.7,5.00,0.00,28.9,28.3,00.0,37.9,30.8,09.8,-004.5,0015.73,0005.25,0004.01
2021-10-22 16:51:00,,0827.7,5.01,0.00,29.0,28.3,00.0,37.9,30.8,09.7,-003.8,0016.87,0005.23,0004.01
2021-10-22 16:52:00,,0827.7,4.99,0.00,29.0,28.3,00.0,37.9,30.8,09.6,-003.8,0017.55,0005.26,0004.01
2021-10-22 16:53:00,,0827.7,4.99,0.00,29.0,28.4,00.0,37.9,30.9,10.0,-004.5,0018.42,0005.27,0004.03
2021-10-22 16:54:00,,0827.7,5.01,0.00,29.0,28.4,00.0,38.0,30.9,09.9,-004.4,0018.21,0005.27,0004.04
2021-10-22 16:55:00,,0827.7,4.99,0.00,29.1,28.4,00.0,38.0,30.9,09.8,-005.0,0017.82,0005.23,0004.01
2021-10-22 16:56:00,,0827.7,5.01,0.00,29.1,28.4,00.0,38.0,30.9,10.2,-005.1,0016.59,0005.21,0004.01
2021-10-22 16:57:00,,0827.7,5.00,0.00,29.1,28.4,00.0,38.0,30.9,10.0,-005.0,0016.17,0005.21,0004.03
2021-10-22 16:58:00,,0827.7,5.01,0.00,29.1,28.4,00.0,38.1,31.0,10.0,-004.6,0016.97,0005.23,0004.02
2021-10-22 16:59:00,,0827.7,5.00,0.00,29.1,28.4,00.0,38.1,31.0,10.0,-003.9,0016.71,0005.24,0004.03
